Location: Unspecified
(0.0000°N, 0.0000°E)
Time: 23:43:24
(UTC+02:00)

Altair - All Passes

Search period start: 21 August 2017 00:00
Search period end: 31 August 2017 00:00
Orbit: 1501 x 1683 km, 47.2° (Epoch: 20 August)

Date Brightness Start Highest point End Pass type
(mag) Time Alt. Az. Time Alt. Az. Time Alt. Az.
21 Aug - 06:52:20 10° SSE 06:56:02 12° SE 06:59:42 10° ESE visible
21 Aug - 08:51:24 10° SSW 09:01:29 68° SE 09:11:15 10° NE daylight
21 Aug - 10:58:19 10° WSW 11:06:10 26° NW 11:13:52 10° N daylight
21 Aug - 19:38:36 10° N 19:45:57 27° NE 19:53:22 10° ESE daylight
21 Aug - 21:41:23 10° NW 21:50:26 62° SW 21:59:49 10° SSE visible
22 Aug - 06:29:09 10° SE 06:30:42 10° SE 06:32:14 10° SE visible
22 Aug - 08:26:18 10° SSW 08:36:17 61° SE 08:45:59 10° NE daylight
22 Aug - 10:32:38 10° WSW 10:40:57 30° NW 10:49:06 10° N daylight
22 Aug - 19:13:52 10° N 19:20:46 23° NE 19:27:42 10° E daylight
22 Aug - 21:16:10 10° NW 21:25:18 69° SW 21:34:44 10° SSE visible
22 Aug - 23:27:37 10° WSW 23:30:33 12° SW 23:33:32 10° SSW visible
23 Aug - 08:01:14 10° SSW 08:11:06 55° SE 08:20:41 10° NE daylight
23 Aug - 10:07:02 10° WSW 10:15:45 34° NW 10:24:16 10° NNE daylight
23 Aug - 18:49:14 10° N 18:55:34 20° NE 19:01:56 10° E daylight
23 Aug - 20:51:00 10° NW 21:00:10 77° SW 21:09:37 10° SE visible
23 Aug - 23:01:02 10° WSW 23:05:16 14° SW 23:09:34 10° SSW visible
24 Aug - 07:36:12 10° SSW 07:45:54 49° SE 07:55:21 10° ENE visible
24 Aug - 09:41:30 10° WSW 09:50:33 38° NW 09:59:24 10° NNE daylight
24 Aug - 18:24:40 10° N 18:30:21 18° NE 18:36:03 10° E daylight
24 Aug - 20:25:51 10° NW 20:35:02 86° SW 20:44:29 10° SE visible
24 Aug - 22:34:51 10° W 22:40:00 16° SW 22:45:15 10° S visible
25 Aug - 07:11:12 10° SSW 07:20:41 44° SE 07:29:58 10° ENE visible
25 Aug - 09:16:01 10° WSW 09:25:21 43° NW 09:34:29 10° NNE daylight
25 Aug - 18:00:15 10° NNE 18:05:08 15° NE 18:10:01 10° E daylight
25 Aug - 20:00:43 10° NW 20:09:54 86° NE 20:19:19 10° SE daylight
25 Aug - 22:08:54 10° W 22:14:45 18° SW 22:20:45 10° S visible
26 Aug - 06:46:14 10° SSW 06:55:28 39° SE 07:04:32 10° ENE visible
26 Aug - 08:50:35 10° WSW 09:00:10 48° NW 09:09:32 10° NNE daylight
26 Aug - 17:36:04 10° NNE 17:39:54 13° NE 17:43:43 10° ENE daylight
26 Aug - 19:35:38 10° NW 19:44:47 77° NE 19:54:07 10° SE daylight
26 Aug - 21:43:05 10° W 21:49:31 21° SW 21:56:07 10° S visible
27 Aug - 06:21:18 10° SSW 06:30:15 35° SE 06:39:03 10° ENE visible
27 Aug - 08:25:11 10° SW 08:34:59 54° NW 08:44:33 10° NNE daylight
27 Aug - 17:12:26 10° NNE 17:14:38 11° NE 17:16:50 10° ENE daylight
27 Aug - 19:10:34 10° NNW 19:19:39 69° NE 19:28:54 10° SE daylight
27 Aug - 21:17:22 10° W 21:24:18 24° SW 21:31:24 10° S visible
28 Aug - 05:56:24 10° S 06:05:01 31° SE 06:13:31 10° ENE visible
28 Aug - 07:59:50 10° SW 08:09:47 60° NW 08:19:32 10° NNE daylight
28 Aug - 18:45:32 10° NNW 18:54:32 62° NE 19:03:39 10° SE daylight
28 Aug - 20:51:45 10° WNW 20:59:05 27° SW 21:06:37 10° S visible
29 Aug - 05:31:34 10° S 05:39:47 28° SE 05:47:53 10° ENE visible
29 Aug - 07:34:32 10° SW 07:44:36 67° NW 07:54:29 10° NNE visible
29 Aug - 09:46:47 10° WNW 09:49:52 12° NW 09:52:56 10° NNW daylight
29 Aug - 18:20:31 10° NNW 18:29:24 55° NE 18:38:22 10° SE daylight
29 Aug - 20:26:12 10° WNW 20:33:54 30° SW 20:41:48 10° S visible
30 Aug - 05:06:47 10° S 05:14:32 24° SE 05:22:12 10° E visible
30 Aug - 07:09:15 10° SW 07:19:25 74° NW 07:29:24 10° NNE visible
30 Aug - 09:20:00 10° WNW 09:24:34 14° NW 09:29:06 10° NNW daylight
30 Aug - 17:55:33 10° NNW 18:04:16 48° NE 18:13:02 10° ESE daylight
30 Aug - 20:00:43 10° WNW 20:08:44 34° SW 20:16:57 10° SSE daylight
